SXM-7

Last updated on Thu Mar 05 2026 00:02:59 GMT+0000 (Coordinated Universal Time)

1 47240U 20096A 26063.30044841 -.00000217 00000+0 00000+0 0 9994 2 47240 0.0208 120.1047 0004256 6.4566 58.4603 1.00271682 6399
UTC large
Height (km)
Speed (km/s)
/
Latitude / Longitude
Inclination (degrees)
Orbital Period (minutes)
Azimuth
Elevation
Range (km)
Doppler Factor

Next 0 passes for location: London (51.5072 / 0.1276)

Sorry there are no passes over London.